sat.trackr.live / text

‹ back to catalog

STARLINK-33619

NORAD 63324 · 2025-057T

PAYLOAD ACTIVE UNKNOWN

§ Identity

Operator
Country
US
Launch date
2025-03-18
Launch site
AFETR
Launch vehicle
Mass (kg)
RCS (m²)

Purposes: comms

External: N2YO · Heavens-Above · Gunter

§ Orbital elements

Epoch: 2026-09-20T22:00:03.000096Z

Period
94.27 min
Inclination
43.0037°
Eccentricity
0.0001496
Mean motion
15.27601353 rev/d
Perigee alt
482.0 km
Apogee alt
484.0 km
Semi-major
6,861.1 km
B*
-8.6218e-4
RAAN
7.8661°
Arg perigee
273.1173°
Mean anomaly
315.0928°
Rev number
571

§ Raw data

STARLINK-336191 63324U 25057T   26263.91670139 -.00023927  00000+0 -86218-3 0  99942 63324  43.0037   7.8661 0001496 273.1173 315.0928 15.27601353  5713

JSON: /api/v1/satellites/63324 · /tle

For live sub-satellite position, see the globe view (requires WebGL).

§ Visibility from observer

Set your observer location to see the next 7 days of passes ≥ 10°. The values pass through the URL so the page stays shareable.

No JS? Fill the form by hand. The geolocation button needs JavaScript.